    Orbital elements:
    2010 RF12                                                Earth MOID = 0.0007 AU
    Epoch 2022 Aug. 9.0 TT = JDT 2459800.5                  Veres                   
    M 263.98553              (2000.0)            P               Q                  
    n   0.90264770     Peri.  267.64257     +0.31838681     -0.94795111             
    a   1.0603694      Node   163.79003     +0.87575065     +0.29239260             
    e   0.1882530      Incl.    0.88352     +0.36289204     +0.12607640             
    P   1.09           H   28.42          G   0.15           U   0                  
    Residuals in seconds of arc
    100901 I41  0.1-  0.3+    100907 F51 (0.4-  0.5-)   100908 844  0.0   0.1+
    100901 I41  0.4+  0.8+    100907 F51  0.0   0.0     100908 844  0.8-  1.2-
    100903 F51  0.1+  0.0     100907 379  0.0   0.5+    100908 844  0.5-  0.6-
    100903 F51  0.2-  0.0     100907 379  0.7+  0.1-    100908 844  0.3+  0.0
    100905 G96  0.1-  0.1+    100907 379  0.0   0.3+    100908 844  0.3-  0.7-
    100905 G96  0.2-  0.0     100907 379 (1.1+  0.4+)   100908 844  0.1+  0.2+
    100905 G96  0.3-  0.1+    100907 E12  0.1+  0.1+    100908 844  0.0   0.6+
    100905 H01  0.1+  0.0     100907 E12  0.1-  0.1-    100908 844  0.3+  0.4+
    100905 H01  0.1+  0.0     100907 E12  0.2+  0.1+    100908 844  0.0   0.5+
    100905 H01  0.1+  0.0     100907 E12  0.2+  0.2+    100908 844  0.6-  1.1-
    100905 H01  0.2+  0.1+    100907 E12  0.1+  0.2+    100908 844  0.1-  0.2-
    100905 H01  0.2+  0.1+    100907 J95  0.3-  0.1-    100908 844  0.3+  0.5+
    100905 H01  0.1+  0.1+    100907 J95  0.1-  0.3-    100908 844  0.2-  0.4+
    100905 H01  0.5+  0.1-    100907 J95  0.0   0.2-    100908 844  0.4+  0.9+
    100905 G96  0.2+  0.1-    100907 J95  0.0   0.2-    100908 844  0.2+  0.6+
    100905 G96  0.1+  0.1-    100907 J95  0.0   0.1-    100908 844  0.3+  0.6+
    100905 G96  0.1-  0.3-    100907 J95  0.0   0.3-    100908 844  0.4-  0.5-
    100905 G96  0.1-  0.1-    100907 I77  0.2-  1.4-    100908 844  0.2+  0.8+
    100905 H01  0.4+  0.1-    100907 I77  0.3-  0.7-    100908 844  0.3+  0.5+
    100905 G96  0.4-  0.1-    100908 844  0.2+  0.1-    100908 844  0.3+  0.6+
    100905 G96  0.1-  0.1-    100908 844  0.1-  0.9-    100908 844  0.1-  0.4+
    100905 G96  0.3-  0.1-    100908 844  0.2-  0.7-    100908 844  0.4+  1.2+
    100905 G96  0.0   0.0     100908 844  0.7+  0.5+    100908 844  0.5+  0.8+
    100905 E12  0.1+  0.3+    100908 844  0.5-  0.5-    100908 844  0.1+  0.5+
    100905 E12  0.4+  0.1+    100908 844  0.3+  0.1-    100908 844  0.5+  1.2+
    100905 300  0.6+  0.0     100908 844  0.2-  0.6-    100908 844  0.4+  0.5+
    100905 300  1.0+  0.2+    100908 844  0.4-  0.4-    100908 844  0.0   0.6-
    100905 300  1.0+  1.0+    100908 844  0.6-  0.7-    100908 844  0.3-  1.1-
    100905 300  0.2+  0.2+    100908 844  0.4-  0.9-    100908 844  0.1-  0.4-
    100905 118  0.6-  1.0-    100908 844  0.1+  0.7-    100908 844  0.9-  1.4-
    100905 118  0.5-  1.0-    100908 844  0.6-  0.4-    100908 844  0.6-  0.8-
    100905 118  1.0-  1.5-    100908 844  0.2-  0.2+    100908 844  0.7-  0.6-
    100905 118  1.4-  0.8-    100908 844  0.3+  0.1-    100908 844  0.6-  0.8-
    100905 118  0.5-  1.3-    100908 844  0.1+  0.1+    100908 844  0.4-  0.8-
    100905 A74  0.5+  1.0+    100908 844  0.3+  0.4-    100908 844  0.2-  0.1-
    100905 A74  0.5-  0.1+    100908 844  0.0   0.2+    100908 844  0.7-  1.3-
    100905 A74  0.8-  0.4-    100908 844  0.0   0.1-    100908 844  0.6-  0.8-
    100905 157  0.2+  0.0     100908 844  0.4-  0.6-    100908 844  0.3-  0.6-
    100905 157  0.1-  0.1+    100908 844  0.2-  0.8-    100908 844  0.5-  0.9-
    100905 J95  0.1-  0.2+    100908 844  1.0+  0.7+    100908 844  0.4-  0.2-
    100905 J95  0.0   0.1+    100908 844  0.5+  0.5+    100908 844  0.3-  0.5-
    100906 B82  0.3-  0.1+    100908 844  0.4+  0.9+    100908 844  0.0   0.3+
    100906 B82  0.2+  0.5+    100908 844  0.3+  0.0     100908 844  0.2-  0.2-
    100906 B82  0.5+  0.3+    100908 844  0.2+  0.2+    100908 844  0.7-  1.2-
    100906 B82  0.3-  0.1+    100908 844  0.4+  0.0     100908 844  0.2+  0.1-
    100906 B82  0.5-  0.2+    100908 844  0.7+  0.4-    100908 844  0.2-  0.5-
    100906 B82  0.3+  0.2+    100908 844  0.0   1.0-    100908 844  0.2-  0.3-
    100906 B82  0.2+  0.5-    100908 844  0.2-  0.7-    100908 844  0.1-  0.0
    100906 B82  0.3+  0.8-    100908 844  0.7-  0.9-    100908 844  0.6-  0.9-
    100906 B82  0.2-  0.5-    100908 844  0.4-  0.8-    100908 844  0.2-  0.7-
    100906 H01  0.0   0.1+    100908 844  0.1+  0.3-    100908 844  0.5-  0.5-
    100906 H01  0.0   0.1-    100908 844  0.3+  0.3-    100908 844  0.1-  0.7-
    100906 H01  0.1-  0.2+    100908 844  0.3-  0.7-    100908 844  0.1+  0.0
    100906 H11  1.1+  0.4+    100908 844  0.4-  0.0     100908 844  0.4-  0.1+
    100906 H11  0.4+  0.3-    100908 844  0.2-  0.4-    100908 844  0.1-  0.0
    100906 H11  0.5+  0.6+    100908 844  0.0   0.2-    100908 844  0.3+  0.0
    100906 704  0.1-  0.2+    100908 844  0.3+  0.5-    100908 844  0.9-  1.1-
    100906 704  0.7-  0.1+    100908 844  0.3-  0.9-    100908 844  0.0   0.5+
    100906 704  0.1-  0.6+    100908 844  0.4-  0.5-    100908 844  0.7+  0.3+
    100906 704  0.6+  0.2-    100908 844  0.1-  0.1-    100908 844  0.4-  0.2-
    100906 H45  1.2-  1.6-    100908 844  0.3+  0.7+    100908 844  0.2-  0.6+
    100906 H45  0.9-  0.6-    100908 844  0.1-  0.3+    100908 844  0.0   0.5+
    100906 H45  0.4-  0.7-    100908 844  0.4+  0.3-    100908 844  0.1-  0.3-
    100906 H45  0.1-  0.7-    100908 844  0.3-  1.1-    100908 844  0.6+  1.2+
    100906 H45  0.6-  0.4-    100908 844  0.1-  0.8-    100908 844  0.1+  0.3+
    100906 H45  0.0   0.4-    100908 844  0.3-  0.5-    100908 844  0.4+  1.2+
    100906 H45  0.6-  0.1-    100908 844  0.1-  0.2-    100908 844  0.2-  0.4-
    100906 704  0.2-  0.0     100908 844  0.5-  0.7-    100908 844  0.1-  0.1-
    100906 H45  0.2-  0.1+    100908 844  0.7-  0.6-    100908 844  0.1+  0.5+
    100906 H45  0.6+  0.4-    100908 844  0.4-  0.8-    100908 844  0.1-  0.5-
    100906 H45  0.5+  0.3+    100908 844  0.3+  0.2+    100908 844  0.4-  0.4-
    100906 H15  0.0   0.3-    100908 844  0.5+  0.4+    100908 844  0.4-  1.2-
    100906 H15  0.2-  0.2+    100908 844  0.0   0.3+    100908 844  0.5-  1.0-
    100906 H15  0.1+  0.0     100908 844  0.2-  0.1-    100908 844  0.1-  0.6-
    100906 H15  0.2-  0.1-    100908 844  0.2-  0.2-    100908 844  0.6-  0.8-
    100906 F65  0.1+  0.0     100908 844  0.0   0.6+    100908 F65  0.0   0.0
    100906 F65  0.1-  0.1-    100908 844  0.1+  0.9+    100908 F65  0.0   0.1+
    100906 F65  0.1-  0.2-    100908 844  0.1+  0.6-    100908 F65  0.0   0.2+
    100906 F65  0.2-  0.2-    100908 844  0.2-  0.8-    100908 415  0.3+  0.1-
    100906 F65  0.1+  0.1+    100908 844  0.6-  0.2-    100908 E12  0.1+  0.2+
    100906 F65  0.0   0.1+    100908 H21  0.4-  0.2-    100908 E12  0.1-  0.2-
    100906 F65  0.1-  0.3-    100908 844  0.2-  1.0-    100908 E12  0.1+  0.0
    100906 F65  0.0   0.0     100908 844  0.7-  0.3-    100908 E12  0.2+  0.1-
    100906 F65  0.1-  0.1+    100908 844  0.3-  0.8-    100908 E28 (0.7+  1.9+)
    100906 E12  0.0   0.0     100908 844  0.7-  1.7-    100908 E28 (1.0+  1.9+)
    100906 E12  0.1-  0.1-    100908 844  0.4-  0.6-    100908 474  0.2+  0.2-
    100906 J95  0.1-  0.1+    100908 844  0.6-  1.1-    100908 474  0.1+  0.0
    100906 J95  0.1+  0.1-    100908 844  0.9-  1.1-    100908 474  0.1+  0.1+
    100906 J95  0.1+  0.0     100908 844  0.4-  1.4-    100908 474  0.1+  0.0
    100906 470 (0.1+  2.7+)   100908 844  0.2-  0.7-    100908 474  0.3-  0.4-
    100906 470 (1.5-  2.5+)   100908 844  0.1-  1.1-    100908 474  0.1+  0.1+
    100906 470 (0.1+  2.2+)   100908 844  0.0   0.0     100908 474  0.0   0.0
    100907 850  0.1+  0.3+    100908 844  0.2+  0.1-    100908 474  0.0   0.2-
    100907 850  0.5+  0.1+    100908 844  0.3-  0.8-    100908 474  0.1+  0.1+
    100907 850  0.0   0.1-    100908 H21  0.1-  0.6+    100908 E28  0.0   0.4+
    100907 850  0.0   0.3-    100908 H21  0.1-  0.0     100908 E28  0.1+  0.2+
    100907 G56  0.1+  0.1-    100908 H21  0.1-  0.3-    100908 415  0.0   0.5-
    100907 G56  0.4-  0.1+    100908 H21  0.8+  0.6-    100908 415  0.0   0.1+
    100907 G56  0.2-  0.1-    100908 I77 (0.9-  2.9-)   100908 415  0.6+  0.4-
    100907 H06  0.3-  0.7-    100908 I77 (0.8-  3.6-)   100908 415  0.1-  0.2-
    100907 H06  0.2-  0.2-    100908 844  0.5-  0.7-    110530 T09 (3.1+  0.1+)
    100907 G56  0.1-  0.1+    100908 844  0.4-  0.2+    220803 T14  0.0   0.0
    100907 H06  0.4-  1.1-    100908 844  0.6-  1.5-    220803 T14  0.0   0.0
    100907 H06  0.6-  0.4-    100908 844  0.8-  1.1-    220804 T14  0.0   0.0
    100907 H21  0.0   0.3+    100908 844  0.1+  0.4+    220804 T14  0.0   0.0
    100907 H21  0.0   0.1+    100908 844  0.7-  0.6-    220804 T14  0.0   0.0
    100907 H21  0.0   0.2+    100908 844  0.6+  0.2+    220804 T14  0.0   0.0
    100907 H21  0.1-  0.1+    100908 844  0.2+  0.1+    220805 T14  0.0   0.0
    100907 H21  0.1-  0.0     100908 844  0.1-  0.8-    220805 T14  0.0   0.0
    100907 H21  0.1+  0.0     100908 844  0.0   0.0     220823 309 (0.2-  0.3-)
    100907 H21  0.2-  0.1+    100908 844  0.7-  1.1-    220823 309 (0.1-  0.4-)
    100907 H01  0.0   0.2-    100908 844  0.3+  0.2+    220823 309 (0.1-  0.3-)
    100907 H01  0.1-  0.1+    100908 844  0.2-  0.0     220824 309 (0.1-  0.4-)
    100907 H01  0.1-  0.1-    100908 844  0.1-  0.0     220824 309 (0.0   0.4-)
    100907 H01  0.2-  0.1+    100908 844  0.2+  0.6+
    
